Regional Weather Roundup
Issued by NWS

Home | Current Version | Previous Version | Graphics & Text | Print | Product List | Glossary On
Versions: 1 2 3 4 5 6 7 8 9 10 11 12 13 14 15 16 17 18 19 20 21 22 23 24 25 26 27 28 29 30 31 32 33 34 35 36 37 38 39 40 41 42 43 44 45 46 47 48 49 50
936
ASUS43 KFSD 241102
RWRSD

WEATHER ROUNDUP FOR SOUTH DAKOTA
NATIONAL WEATHER SERVICE SIOUX FALLS SD
500 AM CST FRI FEB 24 2017

NOTE: "FAIR" INDICATES FEW OR NO CLOUDS BELOW 12,000 FEET WITH NO
SIGNIFICANT WEATHER AND/OR OBSTRUCTIONS TO VISIBILITY.


SDZ001>005-009-010-012>017-241200-
NORTHWEST AND NORTH CENTRAL SOUTH DAKOTA

CITY           SKY/WX    TMP DP  RH WIND       PRES   REMARKS
BUFFALO          N/A     14  10  84 NE6       29.98S WCI   5
FAITH            N/A     18  15  88 NE20      30.04R WCI   2
MOBRIDGE       CLOUDY    20  15  81 N12       30.06S WCI   8
$$

SDZ012>016-024>037-041>051-057-063-072>074-241200-
SOUTHWEST AND SOUTH CENTRAL SOUTH DAKOTA

CITY           SKY/WX    TMP DP  RH WIND       PRES   REMARKS
RAPID CTY ARPT CLOUDY    22  18  85 N13       30.00R WCI  10
PIERRE         MOCLDY    22  14  71 N17       30.04R WCI   8
CUSTER         LGT SNOW  16  11  80 NE10      29.84S WCI   4
ELLSWORTH AFB  CLOUDY    22  21  96 N13       29.99  WCI  10
PHILIP         CLOUDY    23  18  81 NE13      30.05R WCI  11
PINE RIDGE     LGT SNOW  23  20  88 N10       29.96R FOG     WCI  12
SPEARFISH      CLOUDY    19  19 100 E8        29.98S WCI   9
WINNER         CLOUDY    22  16  78 N18       29.97R WCI   7
$$

SDZ004>011-016>023-039-040-241200-
NORTHEAST SOUTH DAKOTA

CITY           SKY/WX    TMP DP  RH WIND       PRES   REMARKS
ABERDEEN       CLOUDY    19  12  74 N22G28    30.06R WCI   2
WATERTOWN      CLOUDY    18  11  74 N25G33    29.93R WCI   0
BROOKINGS      CLOUDY    20  15  81 N21G31    29.87S WCI   4
SISSETON         N/A     20  14  77 N23       30.03R WCI   3
$$

SDZ017-020-022-023-036>040-048>070-241200-
SOUTHEAST SOUTH DAKOTA

CITY           SKY/WX    TMP DP  RH WIND       PRES   REMARKS
SIOUX FALLS    CLOUDY    24  20  84 N23G33    29.84R BLWGSNOWWCI   9
HURON          CLOUDY    20  14  77 N24G35    29.99R WCI   3
CHAMBERLAIN    CLOUDY    23  17  78 N21G28    29.99R WCI   8
MITCHELL       CLOUDY    23  16  74 N21G35    29.94R WCI   8
YANKTON        CLOUDY   N/A N/A N/A N28       29.84S
$$

ABBREVIATIONS USED IN REMARKS
   TC - TEMPERATURE IN CELSIUS
  WCI - WIND CHILL INDEX
   HX - HEAT INDEX
  VSB - VISIBILITY





USA.gov is the U.S. government's official web portal to all federal, state and local government web resources and services.